Temperature
6 4 4 4 5 6 6 5 5 6 8 7 7 7 8 8 8 8 9 9 9 10 11 11 11 11 10 10 10 11 10 10 10 10 10 10 10 10 10 11 10 10 11 11
4 4 5 6 6 6 5 5 5 6 7 7 6 7 7 8 8 8 8 8 9 10 10 10 10 10 10 10 10 10 10 10 10 10 10 10 10 10 10 10 10 10 10 10
4 5 6 6 5 5 5 5 5 5 6 6 6 6 7 7 7 8 8 9 9 9 10 10 10 10 10 10 10 10 10 10 10 10 10 10 10 10 10 10 10 10 10 10
4 5 6 5 5 5 5 6 6 5 5 4 5 5 6 6 6 7 7 8 8 9 9 9 9 9 9 9 9 9 9 9 9 9 9 9 9 9 9 10 10 9 9 9
4 5 5 5 5 5 5 6 5 5 4 4 4 4 5 5 6 6 6 7 8 9 9 9 9 9 9 9 9 9 9 9 9 9 9 9 9 9 9 9 9 9 9 9
4 5 5 5 5 5 5 5 4 4 4 4 4 4 4 5 6 6 6 7 8 8 9 9 9 9 9 9 9 9 9 8 8 8 8 8 8 8 8 8 8 8 8 9
4 4 5 5 4 4 4 4 3 3 3 4 4 4 4 5 5 6 6 6 7 8 8 8 8 8 8 8 8 8 8 8 8 8 8 8 8 8 8 8 8 8 8 8
3 4 4 4 4 4 4 4 4 4 3 3 4 4 5 5 5 6 6 7 7 7 7 7 8 8 8 8 8 8 8 8 8 8 7 7 7 7 7 8 8 8 8 8
3 3 4 4 5 4 4 3 4 3 3 3 4 4 5 5 5 5 5 5 6 6 7 7 7 8 8 7 7 7 7 7 7 7 7 7 7 7 7 7 7 7 7 7
2 2 3 3 4 4 3 3 2 3 3 4 4 4 4 5 4 4 4 4 5 5 6 6 7 7 7 7 7 7 7 7 7 7 7 7 7 7 7 7 7 7 7 7
2 2 2 2 2 3 3 3 2 2 2 3 3 4 5 4 4 4 4 4 5 5 5 5 6 6 6 6 6 6 6 6 6 6 6 6 6 6 6 6 6 7 6 6
1 1 1 1 2 3 3 2 2 2 2 1 2 3 5 4 4 4 4 4 4 4 5 5 5 5 6 6 6 6 6 6 6 6 6 6 6 6 6 6 6 6 6 6
1 1 1 2 2 2 2 2 1 1 1 1 2 3 4 3 3 3 3 3 4 4 4 4 5 5 5 5 6 6 5 5 5 5 5 5 5 5 5 5 6 6 6 6
1 -0 1 3 3 1 1 1 1 1 1 1 1 2 3 3 3 3 3 3 3 3 3 4 4 4 4 5 5 5 5 5 5 5 5 5 5 5 5 5 5 5 5 5
0 -0 -0 0 1 1 1 1 1 1 1 1 2 2 2 2 2 2 2 2 2 2 3 3 3 3 4 4 4 4 4 4 4 4 4 4 4 4 4 4 4 4 4 4
-1 -1 -1 0 1 1 1 1 1 1 1 1 1 1 2 2 2 1 1 1 1 2 2 2 2 3 3 3 4 4 4 4 4 4 4 3 4 4 3 4 4 4 4 4
-2 -2 -1 -0 0 1 1 1 1 1 0 1 1 1 1 1 1 1 1 1 1 1 1 2 2 2 3 3 3 3 3 4 3 3 3 3 3 3 3 3 3 3 3 3
-3 -2 -2 -1 0 1 2 0 0 0 0 -0 -0 -0 -0 -0 0 0 1 0 1 1 1 1 2 2 2 2 3 3 3 3 3 3 3 3 3 3 3 3 3 3 3 3
-3 -2 -2 -1 -0 0 1 0 -0 -0 -0 -1 -1 -1 -1 -1 -1 -0 1 0 0 1 1 1 1 1 2 2 2 2 2 2 3 3 2 2 2 2 2 2 2 2 2 2
-3 -3 -2 -2 -0 1 2 0 -0 -0 -0 -1 -1 -2 -2 -1 -1 -1 0 -0 0 0 1 1 1 1 1 2 2 2 2 2 2 2 2 2 2 2 2 2 2 2 2 2
-3 -3 -3 -2 -1 -1 -0 -1 -0 0 0 -1 -1 -1 -2 -2 -1 -1 -1 -0 -0 0 1 1 1 1 1 1 1 1 1 2 2 1 1 1 1 1 1 1 1 1 1 1
-3 -3 -3 -3 -2 -0 -1 -1 -1 -1 -1 -1 -1 -1 -1 -1 -1 -1 -1 -1 -0 -0 -0 -0 0 0 0 0 0 1 1 1 1 1 1 1 1 1 1 1 1 1 1 1
-3 -3 -3 -2 -1 -1 -1 -1 -0 -0 -1 -1 -1 -1 -2 -2 -2 -1 -1 -1 -1 -1 -1 -1 -1 -0 -0 -0 -0 0 0 0 0 0 0 1 0 0 0 0 0 0 0 0
-4 -4 -4 -3 -3 -2 -1 -1 -1 -1 -1 -1 -1 -1 -2 -2 -2 -2 -1 -1 -1 -1 -1 -1 -1 -1 -1 -1 -1 -1 -1 -1 -0 -0 -0 0 -0 -0 -0 -0 -0 -0 -0 -1
-4 -5 -4 -4 -3 -3 -2 -1 -1 -1 -1 -1 -2 -2 -2 -2 -2 -2 -2 -2 -2 -2 -2 -2 -2 -2 -1 -1 -1 -1 -1 -1 -1 -1 -1 -1 -1 -1 -1 -0 -0 -1 -1 -1
-5 -4 -4 -3 -2 -3 -2 -1 -1 -2 -2 -2 -2 -2 -2 -3 -3 -3 -3 -2 -2 -3 -3 -2 -2 -2 -2 -2 -2 -2 -2 -2 -2 -2 -1 -1 -1 -1 -1 -1 -1 -1 -1 -1
Wind_Speed
2 2 5 7 8 6 4 5 7 8 5 5 11 14 12 10 9 10 10 9 9 10 9 7 7 6 6 7 8 9 9 8 7 6 6 5 4 4 4 5 7 9 9 10
1 6 9 6 6 5 6 7 9 9 5 6 9 14 12 10 9 10 10 10 10 9 7 7 6 6 7 8 8 8 9 9 8 7 6 4 4 3 4 5 6 8 9 9
7 5 4 5 5 6 8 9 8 8 8 5 6 10 9 7 8 8 9 9 9 10 9 8 7 7 7 7 8 8 8 9 8 7 5 4 2 2 2 4 5 6 9 10
5 5 5 5 7 6 8 6 8 8 5 5 2 6 9 6 7 8 8 8 8 8 7 7 7 7 7 8 7 7 8 7 8 8 8 8 7 6 6 5 5 5 8 9
4 3 4 6 7 6 6 4 6 7 6 6 4 5 9 5 6 8 8 8 7 7 7 7 7 8 7 6 6 6 7 7 6 7 8 8 7 5 4 4 5 5 5 7
5 3 3 4 3 4 3 2 4 2 2 6 7 6 8 5 7 6 6 6 6 6 5 5 4 4 5 5 5 5 6 6 6 6 7 8 8 7 6 7 7 5 3 4
4 3 2 1 1 1 1 1 2 2 2 7 4 5 8 8 6 7 6 6 6 5 5 5 4 4 4 5 6 6 6 7 6 6 7 7 7 8 9 8 8 6 4 3
2 5 3 2 3 3 3 5 4 4 5 5 3 7 7 6 4 3 3 4 4 4 3 4 5 5 5 5 6 6 7 7 6 6 6 6 6 5 5 7 6 6 5 5
3 5 3 2 2 3 3 4 4 2 3 4 5 6 6 2 3 2 2 3 3 3 3 3 3 3 4 5 5 6 7 6 6 6 5 5 5 5 5 5 5 5 5 4
3 4 4 3 0 1 3 3 2 3 2 5 5 5 4 4 4 3 3 3 3 3 2 2 2 2 2 3 3 4 5 6 6 6 5 4 5 5 5 5 6 5 5 5
1 2 4 2 3 4 2 2 2 3 3 3 3 6 3 3 3 3 3 3 3 3 2 2 1 0 1 1 1 3 4 4 4 5 5 4 4 4 5 5 5 5 5 6
1 2 3 6 4 3 4 4 4 3 4 3 3 7 4 1 1 1 2 3 3 2 3 3 2 2 1 0 0 1 3 4 4 4 4 4 4 4 5 5 5 5 5 5
2 2 2 4 3 1 1 2 3 3 2 3 4 6 4 3 4 3 2 4 3 3 3 4 4 3 2 1 0 1 1 2 3 3 3 3 4 5 5 5 4 5 5 5
1 3 5 6 5 3 4 4 3 3 4 4 7 8 10 7 6 6 5 5 4 4 4 4 5 4 3 3 1 1 1 2 2 2 3 4 4 5 4 4 4 4 5 5
2 3 4 7 7 5 6 7 6 7 7 7 8 8 11 7 6 5 4 4 4 5 5 4 4 5 4 3 2 1 1 1 2 3 3 3 3 3 3 3 4 4 4 4
1 2 2 4 5 5 7 9 8 8 6 8 8 10 8 5 4 4 4 4 4 4 4 5 5 5 5 3 2 2 1 1 1 2 3 2 2 3 3 4 4 4 4 4
1 2 1 4 5 4 6 7 7 5 5 6 8 7 5 5 5 5 6 5 4 5 5 6 6 5 5 4 3 2 2 1 1 1 2 2 2 3 4 4 4 4 4 4
3 2 1 2 3 5 5 1 4 4 4 5 4 4 4 5 5 6 5 4 5 6 6 7 6 5 5 3 2 2 1 0 1 1 1 1 1 3 3 4 4 3 4 4
3 4 2 1 3 7 5 2 1 3 4 2 3 5 5 5 5 5 4 4 6 6 6 5 5 4 4 3 2 1 1 0 1 1 1 1 2 2 3 3 3 3 3 3
2 2 2 2 2 5 4 2 1 2 4 3 2 3 4 4 4 5 5 7 7 7 5 4 4 3 3 3 2 1 1 1 1 2 2 2 2 2 3 3 3 3 3 3
1 1 3 4 4 7 5 3 1 2 5 4 3 3 3 3 5 7 8 7 6 6 5 4 3 3 3 3 2 1 1 2 3 2 1 1 1 2 2 2 2 3 3 3
5 4 4 3 4 7 2 2 3 4 3 3 3 3 3 5 6 6 6 6 5 5 4 4 3 4 3 2 2 2 2 3 2 1 1 1 1 1 2 3 2 3 3 4
6 6 5 7 7 4 2 3 3 2 3 3 3 4 4 5 6 6 6 6 5 4 4 4 3 4 4 3 1 2 4 3 1 1 1 0 1 1 2 3 3 3 3 3
4 2 3 5 7 5 5 4 3 3 4 5 4 4 4 5 6 6 6 5 5 5 4 4 4 4 4 4 3 3 3 2 1 1 1 0 0 0 1 2 3 3 3 3
4 3 3 6 7 6 5 5 5 4 4 4 4 4 4 4 6 5 5 5 4 4 4 4 3 4 4 4 4 4 3 2 1 1 1 1 0 0 0 1 1 2 3 3
4 5 5 7 6 5 6 4 3 3 4 4 4 5 5 4 5 5 5 4 4 4 4 4 4 4 4 4 4 4 3 1 1 1 1 1 0 0 0 1 1 2 0 0
Wind_Direction
140 135 213 215 212 223 220 235 260 266 268 267 257 265 271 258 252 255 253 247 243 244 243 233 220 207 200 197 192 190 187 187 178 175 176 181 189 192 196 190 190 185 184 184
71 237 230 216 223 231 239 256 270 286 283 264 271 273 270 255 244 244 248 248 247 249 247 231 217 204 199 198 195 191 189 189 189 186 182 181 179 189 199 187 192 194 189 186
206 231 216 211 233 238 245 238 254 273 309 298 291 287 265 258 244 252 252 249 246 242 232 224 212 210 200 202 199 197 195 192 192 182 169 161 151 156 193 188 195 199 195 192
236 247 240 234 240 229 259 240 250 264 282 281 241 281 274 260 261 257 261 260 251 246 232 221 213 210 206 207 202 194 194 193 192 181 179 181 189 195 205 192 192 199 198 197
245 230 215 232 240 225 239 265 257 253 242 269 250 241 279 279 265 271 269 265 260 250 236 227 215 207 205 200 197 194 189 191 190 187 187 191 199 198 196 185 184 198 203 198
247 243 221 230 250 229 250 319 316 297 242 259 235 216 275 266 250 269 270 272 270 259 241 231 217 197 194 189 191 189 187 192 190 188 190 195 195 190 190 193 188 191 197 198
299 261 245 206 332 324 124 101 345 322 264 249 226 217 249 259 251 240 250 265 272 259 240 229 227 211 194 191 194 191 191 195 193 190 192 197 197 191 196 197 190 183 188 199
269 278 238 216 203 213 207 176 190 225 234 270 259 236 248 260 268 261 261 273 282 270 251 228 224 217 204 194 195 194 196 196 193 192 197 197 193 191 202 198 193 190 193 196
209 258 293 257 227 173 182 204 202 203 273 271 258 267 290 280 338 330 316 315 292 280 270 246 225 207 205 195 198 199 195 192 190 189 191 191 194 195 203 195 189 192 192 188
185 263 274 284 310 242 190 172 127 172 232 262 272 259 258 273 278 304 322 309 294 299 290 261 244 217 215 205 196 195 190 189 189 187 190 193 192 196 203 191 189 187 185 184
192 220 294 315 211 220 191 188 186 185 203 210 274 277 251 240 242 261 284 297 294 304 305 302 313 237 193 210 189 190 188 188 192 190 187 186 195 198 198 192 190 185 181 181
195 171 260 258 260 243 200 194 175 193 234 213 230 275 295 236 251 269 311 327 330 340 350 352 5 24 37 64 203 179 190 194 200 190 181 185 188 193 192 192 189 182 182 185
157 154 318 327 328 349 247 226 195 184 187 211 221 270 322 6 358 354 341 336 343 355 4 9 9 3 344 316 266 197 198 202 195 175 179 186 194 190 189 190 186 180 179 181
139 180 206 229 247 231 251 255 215 184 213 233 235 260 293 309 325 330 334 340 345 348 355 4 359 345 327 311 302 258 249 216 186 168 180 192 203 194 191 187 181 181 177 179
132 214 239 261 266 252 244 249 232 220 217 224 250 254 273 285 300 307 314 329 345 346 351 351 344 332 325 322 316 283 245 214 179 175 185 197 202 189 180 181 182 178 177 181
81 212 272 286 278 263 266 262 245 238 234 238 257 272 278 289 308 316 316 325 331 329 330 329 326 322 316 312 308 304 285 244 180 185 196 201 189 183 182 183 181 174 174 175
185 175 232 274 309 326 273 248 218 218 219 210 234 250 296 322 328 322 315 316 315 313 314 314 310 310 307 304 297 282 266 244 172 188 203 196 190 190 193 189 180 176 171 165
168 161 197 284 349 255 251 260 200 213 255 238 253 280 295 285 301 310 312 309 309 309 307 305 302 304 307 303 297 283 291 217 184 199 218 205 192 194 188 178 178 178 166 169
183 168 184 209 263 279 293 280 186 203 282 260 247 288 311 322 325 320 323 321 305 302 296 294 293 295 305 311 300 321 337 300 206 222 236 228 214 199 187 182 185 180 166 170
95 138 166 193 230 253 270 288 275 120 291 280 246 278 309 346 326 300 317 321 318 314 309 306 315 323 326 321 325 348 302 283 268 260 250 228 217 200 198 192 185 174 167 175
136 163 193 213 239 265 268 294 71 149 262 286 269 269 279 273 261 283 304 310 316 323 325 330 336 331 321 322 337 324 301 277 273 275 260 236 215 205 188 171 170 167 167 163
185 184 202 187 218 258 262 118 180 238 279 281 286 282 277 284 292 297 302 310 325 334 342 344 345 334 327 335 357 330 298 288 285 274 252 222 197 195 161 154 161 161 160 159
206 200 203 204 224 261 228 228 253 258 277 284 286 290 284 292 298 306 310 319 329 333 339 342 344 334 334 337 345 313 302 312 318 330 302 254 190 186 167 163 167 164 162 167
259 218 216 261 267 270 266 264 285 281 272 282 283 287 289 290 295 304 313 319 327 331 331 336 340 333 329 331 330 309 311 326 337 325 306 312 138 127 152 161 167 173 178 182
238 194 232 262 275 297 269 247 265 281 284 294 302 296 287 292 300 302 307 308 314 322 324 331 328 323 321 329 333 328 324 338 339 313 299 291 244 176 129 140 177 190 200 198
215 200 210 244 250 245 271 270 273 280 285 288 297 303 305 296 294 302 301 303 310 318 323 327 325 321 321 329 329 324 319 312 297 300 298 284 252 175 141 110 43 15 63 243
Height
1488 1492 1493 1491 1491 1490 1491 1491 1490 1484 1479 1480 1476 1471 1467 1464 1464 1463 1461 1461 1460 1460 1461 1462 1464 1465 1467 1469 1470 1472 1474 1476 1479 1481 1483 1486 1488 1490 1492 1495 1497 1499 1500 1502
1491 1491 1487 1487 1488 1489 1489 1490 1488 1482 1478 1477 1474 1468 1462 1460 1459 1458 1457 1456 1455 1455 1456 1457 1459 1460 1461 1463 1465 1467 1469 1472 1474 1476 1479 1482 1484 1486 1488 1491 1493 1495 1496 1498
1488 1486 1483 1485 1487 1488 1487 1488 1485 1484 1479 1476 1475 1467 1459 1455 1454 1453 1452 1451 1450 1450 1450 1451 1453 1454 1456 1458 1460 1462 1465 1467 1469 1472 1475 1477 1479 1481 1483 1485 1488 1490 1492 1494
1486 1482 1483 1483 1484 1485 1485 1480 1481 1481 1484 1483 1479 1476 1458 1452 1451 1449 1447 1447 1446 1445 1446 1447 1448 1449 1451 1453 1456 1458 1461 1463 1465 1467 1470 1472 1473 1475 1478 1480 1483 1486 1488 1489
1484 1481 1481 1481 1479 1480 1480 1478 1479 1479 1481 1482 1479 1479 1461 1453 1450 1446 1444 1443 1442 1442 1442 1442 1443 1444 1447 1450 1452 1455 1457 1459 1461 1463 1465 1467 1470 1472 1474 1477 1479 1481 1483 1485
1481 1479 1479 1478 1476 1477 1477 1478 1479 1480 1480 1481 1473 1475 1463 1454 1447 1444 1441 1439 1438 1438 1439 1439 1439 1441 1443 1446 1449 1451 1453 1455 1457 1459 1461 1463 1465 1467 1469 1471 1473 1476 1478 1480
1482 1478 1477 1476 1477 1477 1478 1483 1486 1484 1486 1477 1467 1468 1459 1446 1443 1441 1440 1438 1436 1436 1436 1436 1436 1438 1440 1442 1444 1446 1449 1450 1453 1454 1456 1459 1461 1463 1464 1467 1469 1471 1473 1475
1485 1481 1476 1474 1475 1477 1478 1480 1485 1484 1484 1475 1467 1464 1451 1442 1439 1438 1437 1436 1435 1434 1434 1434 1434 1435 1436 1438 1441 1443 1445 1447 1449 1450 1452 1455 1457 1459 1460 1463 1465 1466 1469 1471
1484 1480 1474 1473 1472 1474 1476 1478 1477 1483 1480 1477 1466 1458 1447 1440 1438 1437 1436 1435 1433 1432 1431 1431 1432 1432 1433 1435 1437 1440 1442 1443 1445 1447 1449 1451 1453 1455 1457 1459 1461 1463 1464 1467
1482 1483 1476 1473 1472 1472 1474 1475 1479 1481 1478 1473 1464 1458 1450 1441 1439 1437 1436 1434 1432 1431 1430 1430 1429 1430 1431 1433 1435 1437 1438 1440 1442 1443 1445 1447 1449 1451 1453 1455 1456 1458 1460 1462
1481 1484 1479 1476 1474 1473 1475 1476 1476 1479 1478 1476 1469 1456 1441 1440 1438 1437 1435 1434 1432 1431 1430 1429 1429 1428 1430 1431 1433 1434 1436 1437 1439 1440 1442 1444 1446 1447 1449 1451 1452 1454 1456 1458
1480 1484 1483 1477 1471 1470 1470 1471 1474 1477 1477 1477 1474 1459 1439 1438 1437 1437 1436 1434 1433 1431 1430 1429 1428 1428 1429 1429 1430 1431 1432 1434 1436 1437 1438 1440 1442 1444 1445 1446 1448 1449 1451 1453
1479 1483 1482 1475 1475 1474 1472 1470 1471 1473 1476 1476 1472 1457 1440 1438 1438 1438 1437 1435 1434 1432 1431 1429 1428 1428 1427 1428 1428 1429 1430 1431 1432 1434 1435 1436 1438 1440 1441 1442 1444 1445 1447 1449
1476 1480 1480 1473 1469 1471 1471 1469 1469 1471 1473 1472 1466 1454 1445 1441 1440 1439 1437 1436 1434 1433 1431 1429 1428 1428 1427 1426 1426 1427 1428 1429 1429 1430 1432 1433 1434 1435 1437 1438 1439 1441 1442 1444
1475 1479 1477 1472 1468 1468 1466 1465 1465 1466 1465 1465 1456 1453 1445 1443 1442 1440 1438 1435 1434 1432 1430 1429 1428 1427 1426 1425 1425 1426 1426 1426 1426 1427 1428 1429 1430 1432 1433 1434 1435 1437 1439 1440
1476 1478 1477 1472 1466 1465 1463 1459 1459 1459 1459 1458 1455 1451 1444 1443 1441 1439 1437 1435 1433 1431 1430 1429 1428 1426 1424 1423 1422 1422 1422 1423 1423 1424 1425 1426 1427 1428 1429 1430 1432 1433 1435 1437
1477 1478 1477 1472 1468 1464 1460 1455 1454 1455 1453 1453 1451 1448 1444 1443 1440 1438 1436 1434 1432 1430 1428 1427 1425 1423 1422 1421 1420 1420 1420 1419 1420 1421 1422 1423 1424 1425 1426 1427 1428 1429 1431 1433
1477 1477 1478 1475 1471 1464 1453 1451 1450 1450 1450 1449 1447 1446 1444 1442 1440 1437 1435 1433 1431 1429 1427 1425 1423 1421 1421 1420 1419 1419 1418 1418 1418 1418 1419 1419 1420 1421 1423 1424 1425 1426 1428 1429
1473 1475 1477 1477 1472 1462 1452 1450 1449 1450 1449 1446 1446 1444 1442 1440 1437 1434 1433 1432 1430 1427 1425 1423 1421 1420 1418 1418 1417 1416 1415 1415 1415 1415 1416 1417 1417 1418 1419 1420 1421 1423 1424 1426
1473 1474 1477 1477 1470 1461 1450 1448 1447 1450 1449 1444 1444 1442 1441 1440 1440 1435 1431 1430 1427 1425 1422 1421 1419 1418 1416 1415 1414 1414 1413 1412 1412 1413 1414 1414 1415 1415 1416 1417 1418 1420 1422 1423
1475 1476 1477 1476 1471 1459 1450 1447 1447 1453 1448 1443 1442 1441 1440 1439 1438 1434 1430 1427 1425 1423 1420 1418 1417 1415 1415 1414 1413 1411 1411 1410 1411 1411 1412 1412 1412 1413 1413 1414 1415 1417 1419 1420
1471 1473 1474 1474 1469 1458 1448 1447 1449 1447 1443 1441 1440 1439 1438 1436 1433 1431 1428 1425 1423 1421 1419 1417 1416 1414 1413 1412 1410 1409 1408 1409 1409 1409 1409 1409 1410 1410 1410 1411 1413 1415 1416 1417
1466 1464 1463 1461 1455 1448 1446 1445 1444 1443 1441 1439 1438 1437 1435 1433 1431 1428 1426 1424 1421 1419 1418 1416 1414 1412 1411 1410 1409 1407 1407 1407 1407 1407 1407 1407 1407 1407 1408 1409 1410 1411 1413 1414
1461 1458 1459 1456 1448 1445 1444 1443 1442 1441 1439 1438 1436 1435 1433 1431 1429 1427 1424 1422 1420 1418 1416 1414 1412 1410 1409 1408 1407 1406 1405 1405 1404 1404 1404 1404 1404 1404 1405 1406 1407 1409 1410 1411
1456 1457 1456 1453 1446 1443 1440 1440 1439 1438 1437 1436 1434 1433 1431 1429 1427 1425 1422 1420 1418 1416 1414 1412 1411 1409 1407 1406 1405 1404 1404 1403 1402 1402 1402 1402 1402 1402 1403 1404 1405 1406 1408 1409
1451 1451 1452 1447 1442 1441 1438 1438 1437 1436 1434 1433 1432 1430 1429 1427 1425 1423 1420 1419 1416 1414 1412 1410 1409 1407 1406 1405 1404 1403 1402 1401 1400 1399 1399 1400 1400 1400 1401 1402 1404 1405 1406 1407